Preview of NWS' New Version of Forecast
This preview is not operational and should not be used for support decisions.

Regional Weather Roundup (RWR)

Issued by National Weather Service (NWS)

                            
000
ASUS43 KLSX 210907
RWRMO 

WEATHER SUMMARY FOR MISSOURI
NATIONAL WEATHER SERVICE SPRINGFIELD MO
400 AM CDT SUN JUL 21 2019

NOTE: "FAIR" INDICATES FEW OR NO CLOUDS BELOW 12,000 FEET WITH NO
       SIGNIFICANT WEATHER AND/OR OBSTRUCTIONS TO VISIBILITY.
       CURRENT SKY AND/OR WEATHER CONDITIONS ARE NOT AVAILABLE FOR
       CHILLICOTHE AND FARMINGTON.

MOZ001>031-035>038-043-044-053-054-211000-
...NORTHERN AND WESTERN MISSOURI...
  
CITY           SKY/WX    TMP DP  RH WIND       PRES   REMARKS
KANSAS CTY INT LGT RAIN  70  69  97 S13       30.01F                  
KANSAS C DTWN  HVY RAIN  72  69  90 SE8       30.01S FOG              
LEE'S SUMMIT   TSTM      69  68  96 VRB3      30.04R FOG              
ST JOSEPH      CLOUDY    72  68  87 E13       29.96F                  
CHILLICOTHE      N/A     71  70  96 S8G20     29.98F                  
KIRKSVILLE     LGT RAIN  70  68  93 NW9       29.96R                  
     
$$
MOZ066>068-077>081-088>096-101>105-211000-
...SOUTHWEST MISSOURI...
  
CITY           SKY/WX    TMP DP  RH WIND       PRES   REMARKS
SPRINGFIELD    MOCLDY    76  71  85 S3        29.98F                  
JOPLIN         CLEAR     78  72  81 S8        29.95R                  
               
$$
MOZ032>034-039>042-045>050-055>058-069>072-211000-
...CENTRAL MISSOURI...  
  
CITY           SKY/WX    TMP DP  RH WIND       PRES   REMARKS
COLUMBIA       CLEAR     72  69  90 W12       29.94S                  
ROLLA          CLEAR     73  67  81 W7        29.96S                  
SEDALIA        LGT RAIN  68 N/A N/A CALM      29.99F                  
WHITEMAN AFB   TSTM      70  70  99 E3        29.95F                  
WARRENSBURG    RAIN      68  68 100 E7        30.00R                  
OSAGE BEACH    CLEAR     73  70  90 SW5       29.97F                  
               
$$
MOZ051-052-059>065-211000-
...EAST CENTRAL MISSOURI...
  
CITY           SKY/WX    TMP DP  RH WIND       PRES   REMARKS
ST LOUIS INTL  MOCLDY    81  73  76 SW7       29.87F                  
SPIRIT OF STL  CLEAR     78  72  81 W6        29.86F                  
ST CHARLES       N/A    N/A N/A N/A MISG      29.85F                  
                   
$$
MOZ072>076-082>087-097>100-106>115-211000-
...SOUTH CENTRAL AND SOUTHEAST MISSOURI...
  
CITY           SKY/WX    TMP DP  RH WIND       PRES   REMARKS
CAPE GIRARDEAU FAIR      79  75  87 S3        29.91S                  
FARMINGTON     CLEAR     76  75  97 S3        29.93F                  
POPLAR BLUFF   FAIR      78  78 100 S6        29.92S                  
WEST PLAINS    PTCLDY    75  72  90 SW5       29.99S                  
                                       
$$